sat.trackr.live / text

‹ back to catalog

UNKNOWN

NORAD 87616

UNKNOWN UNKNOWN UNKNOWN

§ Identity

Operator
Country
Launch date
Launch site
Launch vehicle
Mass (kg)
RCS (m²)

External: N2YO · Heavens-Above

§ Orbital elements

Epoch: 2026-09-18T03:13:53.937120Z

Period
115.47 min
Inclination
66.0369°
Eccentricity
0.0625746
Mean motion
12.47077266 rev/d
Perigee alt
985.2 km
Apogee alt
1,968.3 km
Semi-major
7,854.9 km
B*
1.2492e-3
RAAN
319.0832°
Arg perigee
18.7832°
Mean anomaly
6.6224°
Rev number
57,107

§ Raw data

UNKNOWN1 87616U          26261.13465205  .00000314  00000+0  12492-2 0  99982 87616  66.0369 319.0832 0625746  18.7832   6.6224 12.47077266571077

JSON: /api/v1/satellites/87616 · /tle

For live sub-satellite position, see the globe view (requires WebGL).

§ Visibility from observer

Set your observer location to see the next 7 days of passes ≥ 10°. The values pass through the URL so the page stays shareable.

No JS? Fill the form by hand. The geolocation button needs JavaScript.